Location: ????????
(41.2031°N, 22.5756°E)
Time: 15:45:22
(UTC+00:00)

Cosmos 1470 Rocket - Pass Details

Date: 01 December 2020
Orbit: 604 x 633 km, 82.5° (Epoch: 21 January)

Event Time Altitude Azimuth Distance (km) Brightness Sun altitude
Rises 15:30:48 0° 3° (N) 2,870 6.7 -5.8°
Reaches altitude 10° 15:33:19 10° 16° (NNE) 1,960 5.8 -6.2°
Maximum altitude 15:37:00 27° 75° (ENE) 1,173 4.4 -6.8°
Drops below altitude 10° 15:40:41 10° 134° (SE) 1,948 5.9 -7.5°
Sets 15:43:09 0° 146° (SE) 2,849 6.8 -7.9°
